Gulfport, MS

3:47 PM CDT on September 29, 2016 (GMT -0500)
Gulfport-Biloxi Regional

Weather History for KGPT - January, 2013

Change the Weather History Date:

Thursday, January 10, 2013

  Actual Average Record
Temperature  
Mean Temperature 64 °F -  
Max Temperature 68 °F 59 °F 76 °F (1957)
Min Temperature 60 °F 40 °F 15 °F (1962)
Degree Days  
Heating Degree Days 1    
Growing Degree Days 14 (Base 50)    
Moisture  
Dew Point 63 °F    
Average Humidity 96    
Maximum Humidity 100    
Minimum Humidity 88    
Precipitation  
Precipitation 0.28 in - - ()
Sea Level Pressure  
Sea Level Pressure 30.13 in    
Wind  
Wind Speed 16 mph (ESE)    
Max Wind Speed 26 mph    
Max Gust Speed 32 mph    
Visibility 3 miles    
Events Fog , Rain    
Averages and records for this station are not official NWS values.
T = Trace of Precipitation, MM = Missing Value Source: NWS Daily Summary

Daily Weather History Graph

Daily Weather History Graph

Search for Another Location

Airport or City:

Trip Planner

Search our weather history database for the weather conditions in past years. The results will help you decide how hot, cold, wet, or windy it might be!

Date:

Astronomy

Jan. 10, 2013 Rise Set
Actual Time 6:54 AM CST 5:14 PM CST
Civil Twilight 6:28 AM CST 5:40 PM CST
Nautical Twilight 5:58 AM CST 6:09 PM CST
Astronomical Twilight 5:29 AM CST 6:38 PM CST
Moon 5:34 AM CST (1/10) 4:20 PM CST (1/10)
Length of Visible Light 11h 12m
Length of Day
10h 19m
Waning Crescent, 2% of the Moon is Illuminated
Jan 10
Waning Crescent
Jan 11
New
Jan 18
First Quarter
Jan 26
Full
Feb 3
Last Quarter

Hourly Weather History & Observations

Time (CST) Temp. Dew Point Humidity Pressure Visibility Wind Dir Wind Speed Gust Speed Precip Events Conditions
12:10 AM 66.2 °F 66.2 °F 100% 30.20 in 0.8 mi ESE 16.1 mph - N/A   Overcast
12:33 AM 66.2 °F 64.4 °F 94% 30.20 in 0.2 mi ESE 16.1 mph - 0.00 in Fog , Rain Light Rain
12:50 AM 66.2 °F 64.4 °F 94% 30.19 in 0.5 mi ESE 15.0 mph - 0.00 in Fog , Rain Light Rain
12:53 AM 66.0 °F 64.9 °F 96% 30.19 in 0.5 mi East 17.3 mph - 0.00 in Fog , Rain Light Rain
1:06 AM 66.2 °F 64.4 °F 94% 30.18 in 1.5 mi ESE 17.3 mph 24.2 mph 0.00 in   Overcast
1:16 AM 66.2 °F 64.4 °F 94% 30.19 in 2.5 mi ESE 16.1 mph - 0.00 in   Overcast
1:24 AM 66.2 °F 66.2 °F 100% 30.19 in 3.0 mi ESE 19.6 mph - 0.00 in   Overcast
1:53 AM 66.9 °F 66.0 °F 97% 30.19 in 4.0 mi ESE 16.1 mph - 0.01 in Rain Light Rain
2:03 AM 66.2 °F 66.2 °F 100% 30.19 in 2.5 mi ESE 17.3 mph - N/A Rain Light Rain
2:11 AM 66.2 °F 66.2 °F 100% 30.20 in 4.0 mi ESE 13.8 mph - 0.01 in Rain Light Rain
2:34 AM 66.2 °F 66.2 °F 100% 30.19 in 1.8 mi ESE 16.1 mph - 0.01 in   Overcast
2:53 AM 66.0 °F 64.9 °F 96% 30.18 in 1.0 mi ESE 16.1 mph - 0.01 in   Overcast
3:53 AM 66.0 °F 64.9 °F 96% 30.14 in 1.2 mi ESE 23.0 mph - N/A   Overcast
4:03 AM 64.4 °F 64.4 °F 100% 30.14 in 0.5 mi ESE 20.7 mph - N/A Fog Fog
4:31 AM 66.2 °F 64.4 °F 94% 30.12 in 1.5 mi ESE 23.0 mph 31.1 mph 0.01 in   Overcast
4:41 AM 66.2 °F 64.4 °F 94% 30.12 in 2.5 mi ESE 23.0 mph 31.1 mph 0.01 in   Overcast
4:48 AM 66.2 °F 64.4 °F 94% 30.12 in 3.0 mi ESE 21.9 mph 31.1 mph 0.01 in   Overcast
4:53 AM 66.0 °F 64.9 °F 96% 30.12 in 4.0 mi ESE 24.2 mph 32.2 mph 0.01 in   Overcast
5:43 AM 66.2 °F 64.4 °F 94% 30.12 in 5.0 mi ESE 20.7 mph 29.9 mph N/A   Overcast
5:53 AM 64.9 °F 64.0 °F 97% 30.12 in 1.0 mi ESE 20.7 mph - N/A   Overcast
6:00 AM 64.4 °F 64.4 °F 100% 30.12 in 2.0 mi ESE 17.3 mph - N/A   Overcast
6:36 AM 64.4 °F 64.4 °F 100% 30.14 in 0.5 mi ESE 20.7 mph 28.8 mph N/A Fog Fog
6:53 AM 64.9 °F 64.0 °F 97% 30.15 in 0.2 mi ESE 20.7 mph - N/A Fog Fog
7:53 AM 64.9 °F 64.0 °F 97% 30.15 in 0.2 mi ESE 18.4 mph 28.8 mph N/A Fog Fog
8:51 AM 66.2 °F 64.4 °F 94% 30.18 in 3.0 mi ESE 21.9 mph 27.6 mph N/A   Overcast
8:53 AM 66.2 °F 64.4 °F 94% 30.18 in 3.0 mi ESE 19.6 mph - N/A   Overcast
9:24 AM 64.4 °F 64.4 °F 100% 30.19 in 0.8 mi ESE 17.3 mph 26.5 mph N/A   Overcast
9:53 AM 66.0 °F 64.9 °F 96% 30.17 in 0.8 mi ESE 20.7 mph 27.6 mph N/A   Overcast
10:53 AM 66.9 °F 64.9 °F 93% 30.17 in 0.8 mi ESE 18.4 mph - N/A   Overcast
11:50 AM 68.0 °F 66.2 °F 94% 30.16 in 2.0 mi ESE 17.3 mph 26.5 mph N/A   Overcast
11:53 AM 66.9 °F 66.0 °F 97% 30.16 in 2.0 mi ESE 18.4 mph 26.5 mph N/A   Overcast
12:53 PM 66.9 °F 66.0 °F 97% 30.12 in 3.0 mi ESE 18.4 mph 25.3 mph N/A   Overcast
1:43 PM 68.0 °F 66.2 °F 94% 30.08 in 1.8 mi ESE 20.7 mph - 0.02 in Rain Rain
1:53 PM 68.0 °F 66.0 °F 93% 30.09 in 1.0 mi SE 26.5 mph 32.2 mph 0.05 in Rain Rain
2:04 PM 64.4 °F 62.6 °F 94% 30.11 in 2.5 mi SSE 13.8 mph 32.2 mph N/A Rain Rain
2:11 PM 64.4 °F 62.6 °F 94% 30.10 in 4.0 mi South 10.4 mph - N/A Rain Rain
2:53 PM 62.1 °F 61.0 °F 96% 30.12 in 4.0 mi SSW 8.1 mph - N/A   Overcast
3:53 PM 62.1 °F 61.0 °F 96% 30.13 in 2.0 mi South 3.5 mph - 0.05 in Rain Light Rain
4:05 PM 62.6 °F 62.6 °F 100% 30.13 in 2.0 mi Calm Calm - 0.02 in Rain Rain
4:07 PM 62.6 °F 62.6 °F 100% 30.13 in 2.0 mi Calm Calm - 0.03 in Rain Rain
4:53 PM 62.1 °F 61.0 °F 96% 30.09 in 2.0 mi SE 8.1 mph - 0.08 in Rain Light Rain
5:17 PM 60.8 °F 60.8 °F 100% 30.08 in 1.0 mi SE 13.8 mph - 0.03 in Rain Light Rain
5:43 PM 62.6 °F 60.8 °F 94% 30.07 in 4.0 mi SE 15.0 mph - 0.05 in Rain Light Rain
5:53 PM 62.1 °F 61.0 °F 96% 30.05 in 5.0 mi ESE 19.6 mph - 0.06 in Rain Light Rain
6:51 PM 62.6 °F 60.8 °F 94% 30.02 in 10.0 mi SE 16.1 mph - 0.01 in Rain Light Rain
6:53 PM 63.0 °F 61.0 °F 93% 30.01 in 10.0 mi SE 13.8 mph 24.2 mph 0.01 in Rain Light Rain
7:53 PM 63.0 °F 60.1 °F 90% 30.03 in 10.0 mi East 11.5 mph 18.4 mph 0.00 in   Partly Cloudy
8:08 PM 62.6 °F 60.8 °F 94% 30.02 in 10.0 mi ESE 8.1 mph - N/A   Mostly Cloudy
8:53 PM 64.0 °F 61.0 °F 90% 30.10 in 10.0 mi Variable 3.5 mph - 0.00 in   Overcast
8:58 PM 64.4 °F 60.8 °F 88% 30.10 in 10.0 mi SE 9.2 mph - N/A   Overcast
9:53 PM 63.0 °F 60.1 °F 90% 30.11 in 9.0 mi SSE 4.6 mph - N/A   Overcast
10:17 PM 62.6 °F 60.8 °F 94% 30.10 in 8.0 mi SSE 3.5 mph - N/A   Scattered Clouds
10:53 PM 61.0 °F 59.0 °F 93% 30.11 in 7.0 mi SSE 4.6 mph - N/A   Mostly Cloudy
11:26 PM 62.6 °F 60.8 °F 94% 30.11 in 6.0 mi SSE 4.6 mph - N/A   Mostly Cloudy
11:38 PM 62.6 °F 60.8 °F 94% 30.12 in 6.0 mi South 4.6 mph - N/A   Mostly Cloudy
11:53 PM 62.1 °F 60.1 °F 93% 30.11 in 6.0 mi SSE 3.5 mph - N/A   Overcast